Regional Weather Roundup
Issued by NWS Midland/Odessa, TX

Skip options and go directly to product.
Home | Oldest Version | Next Version | Current Version | All | Text Only | Save Text | Print | Product List | Glossary On

Skip product version selection by date and time.   
568
ASUS44 KMAF 080110
RWRMAF
MIDLAND AREA WEATHER ROUNDUP
NATIONAL WEATHER SERVICE MIDLAND TX
700 PM CST SUN FEB 07 2016

...IN SOUTHWEST TEXAS AND SOUTHEAST NEW MEXICO...

CITY           SKY/WX    TMP DP  RH WIND       PRES   REMARKS
ALPINE         CLOUDY    56  10  15 NE3       30.28R
ANDREWS        FAIR      51  18  26 NE7       30.21R
ARTESIA        CLOUDY    55  21  26 CALM      30.21R
BIG SPRING     CLEAR     55  20  25 NE13      30.22R
CARLSBAD       CLOUDY    54  21  27 N8        30.19R
DRYDEN           N/A     63  14  15 VRB6      30.13R
FORT STOCKTON  CLEAR     59  18  20 N8        30.18R
GUAD PASS      CLOUDY    53  14  21 E15       30.27R
HOBBS          CLEAR     50  16  25 NE8       30.22R
MARFA          CLOUDY    54   4  13 N5        30.24R
MIDLAND AIRPK  CLOUDY    58  17  20 NE12      30.20R
MIDLAND INTL   CLOUDY    59  17  19 NE12      30.19R
ODESSA         CLOUDY    56  18  22 NE10      30.20R
PECOS          CLEAR     63  20  19 NE6       30.17R
PRESIDIO       FAIR      63  11  13 CALM      30.16R
SEMINOLE       CLOUDY    51  19  28 NE7       30.23R
SNYDER           N/A     55  23  29 NE9       30.21R
WINK           CLOUDY    57  20  23 NE7       30.17R
$$
...OTHER STATIONS IN TEXAS...

CITY           SKY/WX    TMP DP  RH WIND       PRES   REMARKS
ABILENE        CLEAR     53  24  32 N14       30.18R
AMARILLO       CLEAR     40  18  41 NE10      30.29R WCI  33
AUSTIN         PTCLDY    52  33  48 S6        30.12R
BROWNSVILLE    CLOUDY    59  45  59 SE8       30.16F
CORPUS CHRISTI MOCLDY    58  40  51 SE10      30.14R
DALLAS FTW     PTCLDY    56  29  35 NW6       30.13R
DEL RIO        CLOUDY    63  21  20 E5        30.12R
EL PASO        CLOUDY    58  12  16 SE3       30.22R
HOUSTON INT    PTCLDY    58  44  60 S7        30.15R
LUBBOCK        PTCLDY    46  19  34 NE10      30.23R
SAN ANGELO     CLEAR     56  22  26 NE8       30.15R
SAN ANTONIO    CLOUDY    62  28  27 SW6       30.14R
WACO           CLEAR     52  35  52 E7        30.12R
WICHITA FALLS  NOT AVBL
$$
...OTHER LOCATIONS IN NEW MEXICO...

CITY           SKY/WX    TMP DP  RH WIND       PRES   REMARKS
ALAMAGORDO     CLOUDY    57  14  18 N7        30.21R
ALBUQUERQUE    PTCLDY    50  18  28 N8        30.33R
CANNON AFB     CLEAR     42  18  37 NE8       30.25R WCI  37
CLOVIS         CLEAR     41  18  38 NE10      30.27R WCI  35
HOLLOMAN AFB   CLOUDY    58  14  17 NW10      30.20R
ROSWELL        CLOUDY    54  20  26 CALM      30.21R
RUIDOSO          N/A     48  12  23 NW6       30.33R
SANTA FE       CLEAR     41  16  36 NW10      30.31R WCI  35
TRUTH OR CONSE MOCLDY    56  14  19 NE6       30.25R
TUCUMCARI      CLEAR     46  17  31 E8        30.24R
$$

USA.gov is the U.S. government's official web portal to all federal, state and local government web resources and services.